Akron, OH

12:55 AM EDT on May 23, 2017 (GMT -0400)
Akron Fulton International

Weather History for KAKR - April, 2014

Change the Weather History Date:

Sunday, April 6, 2014

  Actual Average (KCAK) Record (KCAK)
Temperature  
Mean Temperature 40 °F -  
Max Temperature 55 °F 54 °F 83 °F (1929)
Min Temperature 25 °F 34 °F 19 °F (1982)
Degree Days  
Heating Degree Days 25    
Moisture  
Dew Point 23 °F    
Average Humidity 52    
Maximum Humidity 85    
Minimum Humidity 28    
Precipitation  
Precipitation 0.00 in - - ()
Sea Level Pressure  
Sea Level Pressure 30.15 in    
Wind  
Wind Speed 2 mph (ESE)    
Max Wind Speed 8 mph    
Max Gust Speed -    
Visibility 9 miles    
Events      
Averages and records for this station are not official NWS values.
T = Trace of Precipitation, MM = Missing Value Source: NWS Daily Summary

Daily Weather History Graph

Daily Weather History Graph

Search for Another Location

Airport or City:

Trip Planner

Search our weather history database for the weather conditions in past years. The results will help you decide how hot, cold, wet, or windy it might be!

Date:

Astronomy

Apr. 06, 2014 Rise Set
Actual Time 7:01 AM EDT 7:56 PM EDT
Civil Twilight 6:33 AM EDT 8:24 PM EDT
Nautical Twilight 5:59 AM EDT 8:57 PM EDT
Astronomical Twilight 5:25 AM EDT 9:32 PM EDT
Moon 11:59 AM EDT (4/6) 1:52 AM EDT (4/6)
Length of Visible Light 13h 51m
Length of Day
12h 55m
Waxing Crescent, 43% of the Moon is Illuminated
Apr 6
Waxing Crescent
Apr 7
First Quarter
Apr 15
Full
Apr 22
Last Quarter
Apr 29
New

Hourly Weather History & Observations

Time (EDT) Temp. Windchill Dew Point Humidity Pressure Visibility Wind Dir Wind Speed Gust Speed Precip Events Conditions
12:54 AM 28.9 °F - 21.9 °F 75% 30.21 in 8.0 mi Calm Calm - N/A   Clear
1:54 AM 28.9 °F - 23.0 °F 78% 30.21 in 9.0 mi Calm Calm - N/A   Clear
2:54 AM 27.0 °F - 21.0 °F 78% 30.20 in 10.0 mi Calm Calm - N/A   Clear
3:54 AM 27.0 °F - 21.0 °F 78% 30.20 in 9.0 mi Calm Calm - N/A   Clear
4:54 AM 27.0 °F - 21.0 °F 78% 30.20 in 8.0 mi Calm Calm - N/A   Clear
5:54 AM 25.0 °F - 21.0 °F 85% 30.20 in 7.0 mi Calm Calm - N/A   Clear
6:54 AM 25.0 °F - 19.9 °F 81% 30.22 in 8.0 mi Calm Calm - N/A   Clear
7:54 AM 28.0 °F - 23.0 °F 81% 30.23 in 7.0 mi Calm Calm - N/A   Clear
8:54 AM 37.9 °F 33.5 °F 28.0 °F 68% 30.23 in 10.0 mi South 5.8 mph - N/A   Clear
9:54 AM 44.1 °F 42.5 °F 27.0 °F 51% 30.23 in 10.0 mi Variable 3.5 mph - N/A   Clear
10:54 AM 46.0 °F 43.9 °F 24.1 °F 42% 30.22 in 10.0 mi Variable 4.6 mph - N/A   Clear
11:54 AM 48.0 °F - 24.1 °F 39% 30.21 in 10.0 mi Calm Calm - N/A   Clear
12:54 PM 50.0 °F - 24.1 °F 36% 30.19 in 10.0 mi ESE 8.1 mph - N/A   Clear
1:54 PM 51.1 °F - 23.0 °F 33% 30.16 in 10.0 mi Calm Calm - N/A   Clear
2:54 PM 53.1 °F - 24.1 °F 32% 30.14 in 10.0 mi Variable 5.8 mph - N/A   Clear
3:54 PM 53.1 °F - 23.0 °F 31% 30.09 in 10.0 mi Variable 5.8 mph - N/A   Clear
4:54 PM 55.9 °F - 23.0 °F 28% 30.07 in 10.0 mi Variable 5.8 mph - N/A   Clear
5:54 PM 55.0 °F - 23.0 °F 29% 30.07 in 10.0 mi SE 6.9 mph - N/A   Clear
6:54 PM 55.0 °F - 23.0 °F 29% 30.06 in 10.0 mi North - - N/A   Clear
7:54 PM 53.1 °F - 21.9 °F 30% 30.05 in 10.0 mi East 3.5 mph - N/A   Clear
8:54 PM 50.0 °F - 25.0 °F 38% 30.04 in 10.0 mi Calm Calm - N/A   Clear
9:54 PM 46.0 °F - 27.0 °F 47% 30.05 in 10.0 mi Calm Calm - N/A   Clear
10:54 PM 48.0 °F - 21.9 °F 36% 30.03 in 10.0 mi ENE 3.5 mph - N/A   Clear
11:54 PM 45.0 °F 43.5 °F 24.1 °F 44% 30.00 in 10.0 mi ENE 3.5 mph - N/A   Clear